Regional Weather Roundup
Issued by NWS Albany, NY

Current Version | Previous Version | Text Only | Print | Product List | Glossary On
Versions: 1 2 3 4 5 6 7 8 9 10 11 12 13 14 15 16 17 18 19 20 21 22 23 24 25 26 27
000
ASUS41 KALY 232310
RWRALY

NEW YORK STATE HOURLY WEATHER ROUNDUP
NATIONAL WEATHER SERVICE ALBANY NY
700 PM EDT WED APR 23 2014

NOTE: "FAIR" INDICATES FEW OR NO CLOUDS BELOW 12,000 FEET WITH NO
SIGNIFICANT WEATHER AND/OR NO OBSTRUCTIONS TO VISIBILITY.

NYZ032-033-038>043-046>054-057>066-NYZ062>081-240000-
EAST


CITY           SKY/WX    TMP DP  RH WIND       PRES   REMARKS
ALBANY         MOCLDY    46  33  60 NW16G28   29.73R
GLENS FALLS    CLOUDY    50  30  46 NW17G29   29.71R
POUGHKEEPSIE   CLOUDY    48  32  53 NW22G32   29.71R
MONTGOMERY     CLOUDY    45  33  63 NW10      29.75R
WHITE PLAINS   PTCLDY    49  34  56 NW22G31   29.67R
ISLIP          MOCLDY    55  34  45 NW17G28   29.61R
NEW YORK CITY  PTCLDY    51  32  48 NW26G36   29.69R
CENTRAL PARK   MOCLDY    51  32  48 MISG      29.73R
$$

NYZ005>009-017-018-044>046-055-056-240000-
CENTRAL


CITY           SKY/WX    TMP DP  RH WIND       PRES   REMARKS
FULTON         CLOUDY    41  30  65 W9G20     29.87S
SYRACUSE       CLOUDY    43  30  60 W13G21    29.87R
ROME           CLOUDY    41  30  65 W17       29.84R
ELMIRA         CLOUDY    42  25  50 N14G25    29.91R
BINGHAMTON     CLOUDY    36  30  80 NW12G22   29.83R WCI  27
MONTICELLO     CLOUDY    37  30  75 NW14G30   29.77R WCI  29
$$

NYZ026>034-041>043-240000-
NORTH


CITY           SKY/WX    TMP DP  RH WIND       PRES   REMARKS
WATERTOWN      CLOUDY    49  26  41 N9        29.84S
FORT DRUM      NOT AVBL
MASSENA        CLOUDY    46  26  45 NW16G24   29.81R
SARANAC LAKE   CLOUDY    37  28  70 NW8       29.71R WCI  31
PLATTSBURGH    CLOUDY    46  30  53 NW14G25   29.71R
$$

NYZ001>004-010>016-019>021-240000-
WEST


CITY           SKY/WX    TMP DP  RH WIND       PRES   REMARKS
NIAGARA FALLS  MOSUNNY   45  21  38 N14G21    29.98R
BUFFALO        MOSUNNY   45  24  43 NW13      29.97R
DUNKIRK        SUNNY     44  28  53 W9        29.99R
JAMESTOWN      SUNNY     39  27  60 NW13G18   29.97S WCI  32
WELLSVILLE     MOSUNNY   43  25  49 NW16G24   29.91R
ROCHESTER      MOSUNNY   46  28  49 NW17G28   29.93R
PENN YAN       CLEAR     41  30  65 W10G20    29.90R
$$

             KEY
       WCI = WIND CHILL INDEX
       VSB = VISIBILITY
       HX  = HEAT INDEX
$$



USA.gov is the U.S. government's official web portal to all federal, state and local government web resources and services.